Location: Siratepeler Tepesi
(39.1042°N, 32.0781°E)
Time: 04:36:50
(UTC+00:00)

SL-08 R/B - Pass Details

Date: 11 April 2026
Orbit: 667 x 728 km, 98.5° (Epoch: 9 May)

Event Time Altitude Azimuth Distance (km) Brightness Sun altitude
Rises 17:26:54 0° 25° (NNE) 3,143 6.6 -12.3°
Reaches altitude 10° 17:29:29 10° 38° (NE) 2,223 5.7 -12.8°
Maximum altitude 17:33:38 28° 96° (E) 1,361 4.3 -13.5°
Enters shadow 17:36:24 17° 143° (SE) 1,794 4.9 -14.0°
